Weather History for Brownwood, TX

Change the Weather History Date:

Tuesday, February 4, 2014

  Actual Average (KABI) Record (KABI)
Temperature  
Mean Temperature 48 °F 46 °F  
Max Temperature 59 °F 59 °F 85 °F (1890)
Min Temperature 37 °F 35 °F 6 °F (1996)
Degree Days  
Heating Degree Days 17 19  
Month to date heating degree days 76  
Since 1 July heating degree days 1745  
Cooling Degree Days 0 0  
Month to date cooling degree days 0  
Year to date cooling degree days 1  
Moisture  
Dew Point 37 °F    
Average Humidity 80    
Maximum Humidity 100    
Minimum Humidity 45    
Precipitation  
Precipitation 0.00 in 0.04 in 0.53 in (1955)
Month to date precipitation 0.17  
Year to date precipitation 1.19  
Sea Level Pressure  
Sea Level Pressure 29.94 in    
Wind  
Wind Speed 6 mph (NW)    
Max Wind Speed 16 mph    
Max Gust Speed 23 mph    
Visibility 7 miles    
Events Rain    
T = Trace of Precipitation, MM = Missing Value Source: NWS Daily Summary

Daily Weather History Graph

Daily Weather History Graph

Search for Another Location

Airport:

Trip Planner

Search our weather history database for the weather conditions in past years. The results will help you decide how hot, cold, wet, or windy it might be!

Date:

Astronomy

Feb. 04, 2014 Rise Set
Actual Time 7:26 AM CST 6:12 PM CST
Civil Twilight 7:01 AM CST 6:38 PM CST
Nautical Twilight 6:32 AM CST 7:07 PM CST
Astronomical Twilight 6:03 AM CST 7:36 PM CST
Moon 10:28 AM CST (2/4) 11:44 PM CST (2/4)
Length of Visible Light 11h 36m
Length of Day
10h 46m
Waxing Crescent, 29% of the Moon is Illuminated
Feb 4
Waxing Crescent
Feb 6
First Quarter
Feb 14
Full
Feb 22
Last Quarter
Mar 1
New

Hourly Weather History & Observations

Time (CST) Temp. Windchill Dew Point Humidity Pressure Visibility Wind Dir Wind Speed Gust Speed Precip Events Conditions
12:15 AM 37.4 °F 30.8 °F 35.6 °F 93% 29.92 in 1.5 mi ESE 9.2 mph - N/A   Overcast
12:35 AM 37.4 °F 32.1 °F 35.6 °F 93% 29.92 in 1.5 mi ESE 6.9 mph - N/A   Overcast
12:55 AM 37.4 °F 32.1 °F 35.6 °F 93% 29.92 in 2.0 mi ESE 6.9 mph - N/A   Overcast
1:15 AM 37.4 °F 34.9 °F 35.6 °F 93% 29.92 in 1.5 mi East 3.5 mph - N/A   Overcast
1:35 AM 37.4 °F 34.9 °F 35.6 °F 93% 29.92 in 1.5 mi ESE 3.5 mph - N/A   Overcast
1:55 AM 37.4 °F - 37.4 °F 100% 29.93 in 1.2 mi Calm Calm - N/A Rain Light Rain
2:15 AM 37.4 °F - 37.4 °F 100% 29.92 in 1.0 mi Calm Calm - N/A Rain Light Rain
2:35 AM 37.4 °F - 37.4 °F 100% 29.92 in 1.0 mi Calm Calm - N/A Rain Light Rain
2:55 AM 37.4 °F - 37.4 °F 100% 29.92 in 1.0 mi Calm Calm - N/A Rain Light Rain
3:15 AM 37.4 °F - 37.4 °F 100% 29.92 in 1.2 mi Calm Calm - N/A Rain Light Rain
3:35 AM 37.4 °F - 37.4 °F 100% 29.92 in 1.5 mi Calm Calm - N/A   Overcast
3:55 AM 37.4 °F - 37.4 °F 100% 29.92 in 1.2 mi Calm Calm - N/A   Overcast
4:15 AM 37.4 °F - 37.4 °F 100% 29.92 in 1.5 mi Calm Calm - N/A   Overcast
4:35 AM 37.4 °F 34.9 °F 37.4 °F 100% 29.91 in 1.5 mi ESE 3.5 mph - N/A   Overcast
4:55 AM 37.4 °F 33.8 °F 37.4 °F 100% 29.91 in 2.5 mi SE 4.6 mph - N/A   Overcast
5:15 AM 37.4 °F 34.9 °F 37.4 °F 100% 29.91 in 3.0 mi SE 3.5 mph - N/A   Overcast
5:35 AM 37.4 °F 34.9 °F 37.4 °F 100% 29.91 in 3.0 mi SE 3.5 mph - N/A   Overcast
5:55 AM 37.4 °F 34.9 °F 37.4 °F 100% 29.92 in 3.0 mi SSE 3.5 mph - N/A   Overcast
6:15 AM 37.4 °F - 37.4 °F 100% 29.93 in 3.0 mi Calm Calm - N/A   Overcast
6:35 AM 37.4 °F - 37.4 °F 100% 29.94 in 2.5 mi Calm Calm - N/A   Overcast
6:55 AM 37.4 °F - 37.4 °F 100% 29.94 in 1.5 mi Calm Calm - N/A Rain Light Rain
7:15 AM 37.4 °F - 37.4 °F 100% 29.94 in 1.5 mi Calm Calm - N/A   Overcast
7:35 AM 37.4 °F - 37.4 °F 100% 29.94 in 1.5 mi Calm Calm - N/A   Overcast
7:55 AM 37.4 °F 34.9 °F 37.4 °F 100% 29.94 in 1.8 mi South 3.5 mph - N/A   Overcast
8:15 AM 37.4 °F - 37.4 °F 100% 29.93 in 2.0 mi Calm Calm - N/A   Overcast
8:35 AM 37.4 °F - 37.4 °F 100% 29.93 in 4.0 mi Calm Calm - N/A   Overcast
8:55 AM 39.2 °F 35.0 °F 39.2 °F 100% 29.94 in 7.0 mi South 5.8 mph - N/A   Overcast
9:15 AM 39.2 °F 34.2 °F 39.2 °F 100% 29.94 in 7.0 mi South 6.9 mph - N/A   Overcast
9:35 AM 39.2 °F 33.0 °F 39.2 °F 100% 29.94 in 9.0 mi South 9.2 mph - N/A   Overcast
9:55 AM 41.0 °F 34.3 °F 39.2 °F 93% 29.94 in 10.0 mi South 11.5 mph - N/A   Mostly Cloudy
10:15 AM 41.0 °F 36.4 °F 39.2 °F 93% 29.94 in 10.0 mi SSW 6.9 mph - N/A   Mostly Cloudy
10:35 AM 42.8 °F 36.2 °F 39.2 °F 87% 29.94 in 10.0 mi SW 12.7 mph - N/A   Mostly Cloudy
10:55 AM 42.8 °F 37.0 °F 39.2 °F 87% 29.94 in 10.0 mi SW 10.4 mph - N/A   Mostly Cloudy
11:15 AM 44.6 °F 38.4 °F 39.2 °F 81% 29.94 in 10.0 mi WSW 12.7 mph - N/A   Mostly Cloudy
11:35 AM 44.6 °F 38.8 °F 39.2 °F 81% 29.93 in 10.0 mi West 11.5 mph - N/A   Overcast
11:55 AM 46.4 °F 41.9 °F 39.2 °F 76% 29.92 in 10.0 mi West 9.2 mph - N/A   Overcast
12:15 PM 48.2 °F - 39.2 °F 71% 29.92 in 10.0 mi WSW 10.4 mph - N/A   Overcast
12:35 PM 48.2 °F - 39.2 °F 71% 29.91 in 10.0 mi West 10.4 mph - N/A   Scattered Clouds
12:55 PM 50.0 °F - 39.2 °F 66% 29.90 in 10.0 mi West 12.7 mph 16.1 mph N/A   Scattered Clouds
1:15 PM 50.0 °F - 39.2 °F 66% 29.89 in 10.0 mi WNW 13.8 mph - N/A   Mostly Cloudy
1:35 PM 53.6 °F - 39.2 °F 58% 29.87 in 10.0 mi West 13.8 mph - N/A   Partly Cloudy
1:55 PM 53.6 °F - 39.2 °F 58% 29.86 in 10.0 mi West 9.2 mph - N/A   Partly Cloudy
2:15 PM 55.4 °F - 39.2 °F 54% 29.85 in 10.0 mi WNW 10.4 mph 16.1 mph N/A   Partly Cloudy
2:35 PM 57.2 °F - 39.2 °F 51% 29.85 in 10.0 mi West 12.7 mph 19.6 mph N/A   Clear
2:55 PM 57.2 °F - 37.4 °F 48% 29.84 in 10.0 mi West 15.0 mph 19.6 mph N/A   Clear
3:15 PM 59.0 °F - 37.4 °F 45% 29.84 in 10.0 mi NW 13.8 mph 18.4 mph N/A   Clear
3:35 PM 59.0 °F - 37.4 °F 45% 29.84 in 10.0 mi NW 12.7 mph 19.6 mph N/A   Clear
3:55 PM 59.0 °F - 37.4 °F 45% 29.84 in 10.0 mi WNW 16.1 mph 19.6 mph N/A   Clear
4:15 PM 59.0 °F - 37.4 °F 45% 29.85 in 10.0 mi WNW 16.1 mph 20.7 mph N/A   Clear
4:35 PM 59.0 °F - 37.4 °F 45% 29.85 in 10.0 mi WNW 12.7 mph 23.0 mph N/A   Clear
4:55 PM 59.0 °F - 37.4 °F 45% 29.86 in 10.0 mi WNW 13.8 mph - N/A   Clear
5:15 PM 59.0 °F - 37.4 °F 45% 29.88 in 10.0 mi NNW 15.0 mph - N/A   Clear
5:35 PM 57.2 °F - 39.2 °F 51% 29.89 in 10.0 mi NNW 12.7 mph - N/A   Clear
6:15 PM 53.6 °F - 39.2 °F 58% 29.92 in 10.0 mi North 9.2 mph 17.3 mph N/A   Clear
6:35 PM 50.0 °F - 39.2 °F 66% 29.94 in 10.0 mi North 8.1 mph - N/A   Clear
6:55 PM 48.2 °F - 39.2 °F 71% 29.95 in 10.0 mi NNE 8.1 mph - N/A   Scattered Clouds
7:15 PM 48.2 °F - 39.2 °F 71% 29.96 in 10.0 mi NNE 6.9 mph - N/A   Overcast
7:35 PM 46.4 °F 42.9 °F 39.2 °F 76% 29.98 in 10.0 mi North 6.9 mph - N/A   Scattered Clouds
7:55 PM 46.4 °F 42.4 °F 37.4 °F 71% 29.99 in 10.0 mi North 8.1 mph - N/A   Partly Cloudy
8:15 PM 44.6 °F 42.2 °F 37.4 °F 76% 30.01 in 10.0 mi NNE 4.6 mph - N/A   Scattered Clouds
8:35 PM 44.6 °F 40.2 °F 37.4 °F 76% 30.02 in 10.0 mi North 8.1 mph - N/A   Scattered Clouds
8:55 PM 42.8 °F - 35.6 °F 76% 30.03 in 10.0 mi North - - N/A   Scattered Clouds
9:15 PM 41.0 °F 39.0 °F 35.6 °F 81% 30.04 in 10.0 mi North 3.5 mph - N/A   Mostly Cloudy
9:35 PM 41.0 °F 39.0 °F 35.6 °F 81% 30.05 in 10.0 mi North 3.5 mph - N/A   Mostly Cloudy
9:55 PM 41.0 °F 38.0 °F 33.8 °F 76% 30.07 in 10.0 mi NNW 4.6 mph - N/A   Mostly Cloudy
10:15 PM 41.0 °F 36.4 °F 33.8 °F 76% 30.08 in 10.0 mi North 6.9 mph - N/A   Mostly Cloudy
10:35 PM 41.0 °F 33.1 °F 33.8 °F 76% 30.09 in 10.0 mi North 15.0 mph 20.7 mph N/A   Mostly Cloudy
10:55 PM 41.0 °F 33.5 °F 33.8 °F 76% 30.10 in 10.0 mi North 13.8 mph 20.7 mph N/A   Mostly Cloudy
11:15 PM 39.2 °F 31.2 °F 32.0 °F 75% 30.12 in 10.0 mi North 13.8 mph 19.6 mph N/A   Mostly Cloudy
11:35 PM 39.2 °F 32.5 °F 32.0 °F 75% 30.13 in 10.0 mi North 10.4 mph 17.3 mph N/A   Mostly Cloudy
11:55 PM 37.4 °F 30.8 °F 32.0 °F 81% 30.14 in 10.0 mi North 9.2 mph - N/A   Mostly Cloudy